Location: Unspecified
(0.0000°N, 0.0000°E)
Time: 07:20:51
(UTC+00:00)

Vanguard 2 Rocket - Pass Details

Date: 18 December 2018
Orbit: 554 x 3326 km, 32.9° (Epoch: 15 June)

Event Time Altitude Azimuth Distance (km) Brightness Sun altitude
Rises 12:44:50 0° 308° (NW) 3,960 10.1 63.8°
Reaches altitude 10° 12:47:03 10° 309° (NW) 3,256 9.8 63.6°
Maximum altitude 12:55:37 82° 37° (NE) 1,881 9.6 62.6°
Drops below altitude 10° 13:11:19 10° 123° (ESE) 5,619 11.0 60.4°
Sets 13:16:28 0° 124° (SE) 6,940 11.4 59.6°
